STARLINK-31854, 59671

Orbit data source: Space-Track

STARLINK-31854, 59671 is a payload satellite owned by SpaceX/Seattle (US) in LEO that was launched on Mon, 06 May 2024 UTC via an FALCON 9 launch vehicle from the Air Force Eastern Test Range (AFETR). Payload-class satellites include a variety of spacecraft equipped with specific instruments for various scientific and technological missions. These include communications satellites like Starlink; space stations such as the ISS; scientific satellites like the Hubble; Earth observation satellites from companies like Planet Labs, Umbra, and HawkEye 360; GPS; miniature CubeSats for education and research; and military/defense satellites.

Loading next visibility...
Identifier
59671, 2024-084T
Orbit
LEO
Country
Flag of USUS
Related business
Manufacturer
SpaceX/Seattle
Mission
Operational Commercial Communications
Bus & Motor
STARLINK V2M, Unknown motor
Mass
730 kg wet, ~700 kg dry
Launch date (UTC)
2024-05-06 (2 years ago)
Launch vehicle
FALCON 9
Launch site
Air Force Eastern Test Range (AFETR)
Object type
Payload
Rocket body
Debris
Shape & HBR
Box + 2 Pan, 17.7 m
Radar Cross Section
33.884 m², Large (>1 m²)

Expand to show TLE details & history
Last TLE update: 19 hours ago

TLE from 19 hours ago
0 STARLINK-31854
1 59671U 24084T   26073.02909480  .00000669  00000-0  33827-4 0  9994
2 59671  43.0015 344.2647 0000869 258.7011 101.3743 15.27578691105398
Epoch: 2026-03-14T00:41Z
TLE epoch observation values (Epoch: 2026-03-14T00:41:53.790Z)
Latitude
-0.00003°
Longitude
162.1344°
Altitude
482.946 km
Speed
7.626 km/s
True Right ascension
22h 57m 03s
True Declination
0° 00' 00"
Sunlit
Object was in daylight at epoch
Visualization orbit readout
Latitude
Unknown
Longitude
Unknown
Altitude
Unknown
Speed
Unknown
Apparent Right ascension
Unknown
Apparent Declination
Unknown
Sunlit
N/A
Visualization observer readout
Local Sidereal Time
00:04:14
Azimuth
Unknown
Elevation
Unknown
Doppler factor
Unknown
Orbital elements
Apogee altitude
485.594 km
Perigee altitude
484.402 km
Semi-major axis
6,863.135 km
Eccentricity
0.00009
Inclination
43.0015°
RAAN
344.2647°
Arg. of periapsis
258.7011°
True anomaly
101.38406°
Mean anomaly
101.3743°
Eccentric anomaly
101.37918°
Mean motion
3.81733 °/min
Orbital period
94.31 mins
BSTAR
0.000033827
Loading maneuver chart data...
Computing Atmospheric mass density...
Loading historical data...
Loading historical data...
Loading historical data...
Loading historical data...
Loading historical data...
Loading historical data...
Loading historical data...

Documentation

Showing up to 5 results
|